This is the latest recevied weather packets stored in our database for station/object N1ORT. If no packets are shown the sender has not sent any weather packets the latest 10 day(s).
| Time | Temp. | Humidity | Pressure | Rain* | Wind** | Luminosity | Snow |
|---|---|---|---|---|---|---|---|
| 1777976817 | 12.22° C | 75% | 1007.4 hPa | 0 mm | - | 40 W/m² | - |
| 1777976514 | 12.22° C | 75% | 1007.3 hPa | 0 mm | - | 43 W/m² | - |
| 1777976214 | 12.22° C | 75% | 1007.7 hPa | 0 mm | - | 28 W/m² | - |
| 1777975909 | 12.22° C | 75% | 1007.4 hPa | 0 mm | - | 22 W/m² | - |
| 1777975605 | 11.67° C | 75% | 1007.3 hPa | 0 mm | - | 16 W/m² | - |
| 1777975303 | 11.67° C | 75% | 1007.3 hPa | 0 mm | - | 14 W/m² | - |
| 1777974998 | 11.67° C | 75% | 1007.4 hPa | 0 mm | - | 11 W/m² | - |
| 1777974696 | 11.67° C | 76% | 1007.4 hPa | 0 mm | - | 8 W/m² | - |
| 1777974392 | 11.67° C | 76% | 1007.3 hPa | 0 mm | - | 6 W/m² | - |
| 1777974088 | 11.11° C | 76% | 1007.6 hPa | 0 mm | - | 4 W/m² | - |
| 1777973785 | 11.11° C | 76% | 1007.4 hPa | 0 mm | - | 3 W/m² | - |
| 1777973482 | 11.11° C | 76% | 1007.6 hPa | 0 mm | - | 2 W/m² | - |
| 1777973179 | 11.11° C | 76% | 1007.7 hPa | 0 mm | - | 1 W/m² | - |
| 1777972878 | 11.11° C | 76% | 1007.5 hPa | 0 mm | - | 0 W/m² | - |
| 1777972574 | 11.67° C | 76% | 1007.6 hPa | 0 mm | - | 0 W/m² | - |
| 1777972273 | 11.11° C | 76% | 1007.5 hPa | 0 mm | - | 0 W/m² | - |
| 1777971970 | 11.67° C | 75% | 1007.5 hPa | 0 mm | - | 0 W/m² | - |
| 1777971668 | 11.67° C | 75% | 1007.5 hPa | 0 mm | - | 0 W/m² | - |
| 1777971365 | 11.67° C | 75% | 1007.4 hPa | 0 mm | - | 0 W/m² | - |
| 1777971063 | 11.67° C | 75% | 1007.5 hPa | 0 mm | - | 0 W/m² | - |
| 1777970761 | 11.67° C | 75% | 1007.6 hPa | 0 mm | - | 0 W/m² | - |
| 1777970459 | 11.67° C | 74% | 1007.5 hPa | 0 mm | - | 0 W/m² | - |
| 1777970155 | 11.67° C | 74% | 1007.5 hPa | 0 mm | - | 0 W/m² | - |
| 1777969852 | 11.67° C | 74% | 1007.8 hPa | 0 mm | - | 0 W/m² | - |
| 1777969548 | 11.67° C | 74% | 1007.6 hPa | 0 mm | - | 0 W/m² | - |
* Rain latest hour (hover to see other rain measurements)
** Current wind speed in m/s (hover to see current wind gust speed)